Weather Service Report


507 
ASUS44 KEWX 030011
RWRTX 
SOUTH TEXAS REGIONAL WEATHER ROUNDUP
NATIONAL WEATHER SERVICE AUSTIN/SAN ANTONIO TX
700 PM CDT THU JUL 02 2015

NOTE: "FAIR" INDICATED FEW OR NO CLOUDS BELOW 12,000 FEET WITH NO
SIGNIFICANT WEATHER AND/OR OBSTRUCTIONS TO VISIBILITY.

* - THESE STATIONS ARE NOT NWS OR FAA STATIONS...AND ARE NOT SUBJECT
    TO NWS AND FAA QUALITY CONTROL.
 
TXZ171-172-183>190-030100-
TEXAS HILL COUNTRY AND EDWARDS PLATEAU
  
CITY           SKY/WX    TMP DP  RH WIND       PRES   REMARKS
JUNCTION       MOSUNNY   87  64  46 S10G18    29.94F                  
6HR MIN TEMP:  84; 6HR MAX TEMP:  89;                                

*LLANO         SUNNY     88  68  51 S9        29.97S HX  91           
BURNET         PTSUNNY   86  69  56 SE12G20   29.97F HX  90           
6HR MIN TEMP:  84; 6HR MAX TEMP:  90; 6HR PCP: TRACE;                

*HORSESHOE BAY MOSUNNY   86  70  58 S7G21     29.95F HX  90           
6HR MIN TEMP:  85; 6HR MAX TEMP:  91;                                

*KERRVILLE     CLOUDY    76  73  90 SE9       29.98S                  
6HR MIN TEMP:  76; 6HR MAX TEMP:  86;                                

*FREDERICKSBRG PTSUNNY   83  68  59 SE12G18   29.98S                  
6HR MIN TEMP:  82; 6HR MAX TEMP:  87;                                

*ROCKSPRINGS   SUNNY     84  66  54 SE14G21   29.99F                  
*BOERNE STAGE  SUNNY     81  64  57 S13       29.98F                  
*CASTROVILLE   SUNNY     85  68  57 S13       29.95F                  
HONDO          LGT RAIN  84  69  60 S20       29.95F                  
6HR MIN TEMP:  79; 6HR MAX TEMP:  88; 6HR PCP:  0.03;                

*UVALDE        PTSUNNY   82  74  77 SE9       29.92S                  
6HR MIN TEMP:  81; 6HR MAX TEMP:  89;                                

DEL RIO        SUNNY     89  67  47 SE12G21   29.87F HX  92           
6HR MIN TEMP:  83; 6HR MAX TEMP:  90;                                

LAUGHLIN AFB   SUNNY     89  72  55 SE16      29.87F HX  96           
6HR MIN TEMP:  82; 6HR MAX TEMP:  90;                                

CARRIZO SPRGS  PTSUNNY   88  70  55 SE14G20   29.87S HX  92           
$$

TXZ173-191>194-202-209-217>225-228-030100-
CENTRAL AND SOUTH CENTRAL TEXAS
  
CITY           SKY/WX    TMP DP  RH WIND       PRES   REMARKS
GEORGETOWN     MOSUNNY   90  68  48 S15G22    29.92F HX  93           
AUSTIN/BERGSTM PTSUNNY   83  71  67 S13       29.94F                  
6HR MIN TEMP:  82; 6HR MAX TEMP:  89;                                

AUSTIN/MABRY   PTSUNNY   84  70  62 S8G22     29.96S                  
6HR MIN TEMP:  83; 6HR MAX TEMP:  91; 6HR PCP: TRACE;                

*AUSTIN/EXEC   PTSUNNY   86  72  62 CALM      29.95F HX  92           
*LAGO VISTA    MOSUNNY   84  70  61 S20G28    29.98S                  
6HR MIN TEMP:  84; 6HR MAX TEMP:  89;                                

SAN MARCOS     SUNNY     81  72  74 S16G22    29.96F                  
NEW BRAUNFELS  SUNNY     84  70  62 S15       29.94F                  
6HR MIN TEMP:  80; 6HR MAX TEMP:  92; 6HR PCP:  0.02;                

RANDOLPH AFB   SUNNY     84  67  56 S16       29.95F                  
6HR MIN TEMP:  81; 6HR MAX TEMP:  90; 6HR PCP: TRACE;                

PT SAN ANTONIO NOT AVBL                                               
SAN ANTONIO    MOSUNNY   85  68  56 S21G26    29.95F                  
6HR MIN TEMP:  84; 6HR MAX TEMP:  90; 6HR PCP: TRACE;                

STINSON FIELD  SUNNY     84  68  58 SE14G22   29.93F                  
6HR MIN TEMP:  84; 6HR MAX TEMP:  90;                                

*PLEASANTON    SUNNY     84  69  60 SE14G22   29.94F                  
6HR MIN TEMP:  79; 6HR MAX TEMP:  91; 6HR PCP:  0.02;                

*LA GRANGE     SUNNY     87  76  69 S12       29.94F HX  98           
6HR MIN TEMP:  85; 6HR MAX TEMP:  91;                                

*GIDDINGS      SUNNY     86  71  62 S10G18    29.99F HX  91           
6HR MIN TEMP:  85; 6HR MAX TEMP:  90;                                

*GONZALES      MOSUNNY   85  76  74 S9        29.95F HX  95           
6HR MIN TEMP:  84; 6HR MAX TEMP:  91;                                

$$

TXZ163>164-176>182-195>201-210>213-226-227-235-030100-
SOUTHEAST TEXAS
  
CITY           SKY/WX    TMP DP  RH WIND       PRES   REMARKS
COLLEGE STN    SUNNY     88  70  55 S15       29.95F HX  93           
6HR MIN TEMP:  86; 6HR MAX TEMP:  91;                                

*BRYAN         MOSUNNY   87  72  61 S16G22    29.96F HX  93           
6HR MIN TEMP:  86; 6HR MAX TEMP:  91;                                

*CALDWELL      SUNNY     86  73  66 S14       29.98F HX  93           
*CROCKETT      SUNNY     90  75  62 S7        29.98F HX 100           
*BRENHAM       SUNNY     88  73  59 S12       29.97F HX  96           
6HR MIN TEMP:  88; 6HR MAX TEMP:  92;                                

HUNTSVILLE     SUNNY     88  72  58 S8        29.96F HX  94           
6HR MIN TEMP:  87; 6HR MAX TEMP:  91;                                

CONROE         PTSUNNY   88  70  55 S10       29.97F HX  93           
6HR MIN TEMP:  82; 6HR MAX TEMP:  92;                                

HOUSTON BUSH   PTSUNNY   88  73  61 S10       29.97F HX  95           
6HR MIN TEMP:  88; 6HR MAX TEMP:  92;                                

HOUSTON HOBBY  PTSUNNY   85  74  69 S10       29.97F HX  92           
6HR MIN TEMP:  85; 6HR MAX TEMP:  90;                                

*HOUSTON SW AP MOSUNNY   81  70  70 S7G16     29.98F                  
6HR MIN TEMP:  80; 6HR MAX TEMP:  82;                                

PEARLAND       MOSUNNY   87  73  62 S9        30.00F HX  94           
6HR MIN TEMP:  87; 6HR MAX TEMP:  91;                                

HOUSTON HOOKS  MOSUNNY   88  70  55 S8G17     29.97F HX  93           
6HR MIN TEMP:  88; 6HR MAX TEMP:  91;                                

ELLINGTON FLD  CLOUDY    84  73  70 S13       30.00F HX  91           
SUGAR LAND     MOSUNNY   87  72  60 S14       29.98F HX  93           
6HR MIN TEMP:  87; 6HR MAX TEMP:  92;                                

*HOUSTON EXEC  MOSUNNY   86  73  66 S12       29.99S HX  93           
*CLEVELAND MUN MOSUNNY   86  76  72 S7        29.99F HX  96           
6HR MIN TEMP:  86; 6HR MAX TEMP:  91;                                

*WHARTON       MOSUNNY   84  74  72 SE9       29.98F HX  92           
6HR MIN TEMP:  84; 6HR MAX TEMP:  89;                                

*COLUMBUS      FAIR      85  75  71 S10G16    29.97S HX  94           
6HR MIN TEMP:  85; 6HR MAX TEMP:  89;                                

$$

TXZ214>216-236>238-030100-
THE UPPER TEXAS COAST
  
CITY           SKY/WX    TMP DP  RH WIND       PRES   REMARKS
*ORANGE        PTSUNNY   85  72  63 S10       30.01F HX  91           
6HR MIN TEMP:  85; 6HR MAX TEMP:  90;                                

PORT ARTHUR    PTSUNNY   86  76  71 S9        29.99F HX  96           
6HR MIN TEMP:  86; 6HR MAX TEMP:  91;                                

GALVESTON      PTSUNNY   86  77  74 S13       30.00F HX  97           
6HR MIN TEMP:  86; 6HR MAX TEMP:  89;                                

ANGLETON       PTSUNNY   86  75  69 S15       29.99F HX  95           
6HR MIN TEMP:  86; 6HR MAX TEMP:  90;                                

*BAY CITY      MOSUNNY   87  76  70 SE10      29.98F HX  96           
PALACIOS       MOSUNNY   86  76  71 SE15      29.97F HX  96           
6HR MIN TEMP:  86; 6HR MAX TEMP:  90;                                

$$

TXZ229>234-239>247-030100-
TEXAS COASTAL BEND AND RIO GRANDE PLAINS
  
CITY           SKY/WX    TMP DP  RH WIND       PRES   REMARKS
VICTORIA       MOSUNNY   86  75  69 S15       29.97F HX  95           
6HR MIN TEMP:  86; 6HR MAX TEMP:  91;                                

*BEEVILLE      MOSUNNY   84  78  82 SE13G21   29.95S HX  94           
6HR MIN TEMP:  73; 6HR MAX TEMP:  89; 6HR PCP:  0.01;                

ROCKPORT       LGT RAIN  86  76  71 SE13G20   29.94F HX  96           
6HR MIN TEMP:  86; 6HR MAX TEMP:  90; 6HR PCP: TRACE;                

*PORT ARANSAS  MOSUNNY   84  78  83 SE8       29.95F HX  94           
6HR MIN TEMP:  84; 6HR MAX TEMP:  87;                                

*PORT LAVACA   MOSUNNY   84  75  74 SE12      29.96F HX  92           
*INGLESIDE     MOSUNNY   86  77  73 S14       29.94F HX  97           
CORPUS CHRISTI PTSUNNY   86  76  71 S16       29.94F HX  96           
6HR MIN TEMP:  76; 6HR MAX TEMP:  89; 6HR PCP: TRACE;                

CORPUS NAS     PTSUNNY   84  78  82 S10       29.94F HX  95           
6HR MIN TEMP:  84; 6HR MAX TEMP:  88;                                

*ROBSTOWN      MOSUNNY   86  76  71 SE10G17   29.94F HX  95           
6HR MIN TEMP:  75; 6HR MAX TEMP:  90;                                

ALICE          MOSUNNY   86  75  69 SE14      29.92F HX  95           
6HR MIN TEMP:  74; 6HR MAX TEMP:  91; 6HR PCP:  0.31;                

KINGSVILLE NAS PTSUNNY   85  78  80 SE15      29.93F HX  96           
6HR MIN TEMP:  75; 6HR MAX TEMP:  89; 6HR PCP:  0.17;                

COTULLA        LGT RAIN  88  68  51 SE21G26   29.89F HX  91           
6HR MIN TEMP:  87; 6HR MAX TEMP:  93; 6HR PCP: TRACE;                

*FAITH RANCH   MOSUNNY   90  66  45 SE16G23   29.87S HX  92           
LAREDO         MOSUNNY   91  67  45 SE18G29   29.89F HX  94           
6HR MIN TEMP:  91; 6HR MAX TEMP:  96;                                

$$

TXZ248>255-030100-
DEEP SOUTH TEXAS
  
CITY           SKY/WX    TMP DP  RH WIND       PRES   REMARKS
BROWNSVILLE    SUNNY     84  73  69 S12       29.93F HX  90           
6HR MIN TEMP:  79; 6HR MAX TEMP:  89;                                

PORT ISABEL    PTSUNNY   84  76  76 SE13      29.92F HX  93           
6HR MIN TEMP:  79; 6HR MAX TEMP:  88;                                

*SOUTH PADRE   SUNNY     81  75  83 S7        29.93F                  
HARLINGEN      MOSUNNY   87  75  67 SE16      29.91F HX  96           
6HR MIN TEMP:  78; 6HR MAX TEMP:  92;                                

*HEBBRONVILLE    N/A     87  65  47 SE17      29.93F                  

Return to Home page


Western Regional Climate Center, wrcc@dri.edu